contact:dominique.lefevre@mio.osupytheas.fr, maurice.libes@osupytheas.fr, didier.mallarino@osupytheas.fr
Project:EMSO http://www.emso-fr.org/EMSO-France
Depth: 2436.0 m
Title:EMSO Ligure Ouest : Data MII capteur AQUADOPP
Date,Latitude,Longitude,X_East,Y_North,Z_Up,Amplitude_X,Amplitude_Y,Amplitude_Z,Batterie,SoundSpeed,Heading,Pitch,Roll,Pressure,TIS,Speed,Direction
, degrees North, degrees East, m.s-1, m.s-1,m.s-1, 1, 1, 1, Volt, m.s-1, degree, degree, degree, dbar, degree_C, m.s-1, degree
2023-02-20T00:04:03,42.805,6.029,0.0,0.019,0.0,109.0,109.0,107.0,13.4,1505.2,322.7,-0.8,1.8,2471.001,13.29,0.019,0.0
2023-02-20T00:07:03,42.805,6.029,0.0,0.01,-0.008,108.0,110.0,104.0,13.3,1505.2,323.6,-0.8,1.8,2471.006,13.29,0.01,0.0
2023-02-20T00:10:03,42.805,6.029,0.002,0.012,0.0,109.0,108.0,105.0,13.4,1505.2,324.5,-0.8,1.8,2470.97,13.29,0.012,9.5
2023-02-20T00:13:03,42.805,6.029,0.022,0.005,-0.008,107.0,108.0,106.0,13.4,1505.2,315.5,-0.8,1.8,2470.96,13.29,0.022,77.2
2023-02-20T00:16:03,42.805,6.029,0.009,-0.004,-0.032,108.0,108.0,105.0,13.4,1505.2,330.3,-0.8,1.8,2470.928,13.29,0.009,114.0
2023-02-20T00:19:03,42.805,6.029,0.004,-0.004,0.009,108.0,107.0,106.0,13.3,1505.2,325.4,-0.8,1.8,2470.953,13.29,0.005,135.0
2023-02-20T00:22:03,42.805,6.029,0.0,-0.002,-0.02,108.0,108.0,106.0,13.4,1505.2,322.9,-0.8,1.8,2470.947,13.29,0.002,180.0
2023-02-20T00:25:03,42.805,6.029,0.001,0.017,-0.012,108.0,108.0,105.0,13.4,1505.2,334.3,-0.7,1.8,2470.92,13.29,0.017,3.4
2023-02-20T00:28:03,42.805,6.029,0.019,0.011,-0.02,108.0,108.0,106.0,13.4,1505.2,337.8,-0.8,1.8,2470.914,13.29,0.021,59.9
2023-02-20T00:31:03,42.805,6.029,0.018,0.015,-0.011,110.0,108.0,106.0,13.4,1505.2,340.3,-0.8,1.8,2470.935,13.29,0.023,50.2
2023-02-20T00:34:03,42.805,6.029,-0.006,0.012,-0.022,110.0,108.0,105.0,13.4,1505.2,323.3,-0.8,1.8,2470.902,13.29,0.013,333.4
2023-02-20T00:37:03,42.805,6.029,0.005,0.022,0.0,109.0,110.0,105.0,13.4,1505.2,331.4,-0.8,1.8,2470.938,13.29,0.022,12.8
2023-02-20T00:40:03,42.805,6.029,0.009,0.009,0.029,109.0,107.0,107.0,13.4,1505.2,327.2,-0.8,1.8,2470.93,13.29,0.012,45.0
2023-02-20T00:43:03,42.805,6.029,0.0,0.007,0.004,111.0,107.0,106.0,13.4,1505.2,322.1,-0.7,1.8,2470.919,13.29,0.007,0.0
2023-02-20T00:46:03,42.805,6.029,0.003,0.017,-0.025,108.0,109.0,105.0,13.4,1505.2,332.9,-0.8,1.8,2470.965,13.3,0.017,10.0
2023-02-20T00:49:03,42.805,6.029,-0.014,0.01,-0.007,109.0,108.0,106.0,13.4,1505.2,321.8,-0.7,1.8,2470.896,13.3,0.017,305.5
2023-02-20T00:52:03,42.805,6.029,0.0,0.004,0.0,109.0,109.0,106.0,13.3,1505.2,333.4,-0.8,1.8,2470.941,13.3,0.004,0.0
2023-02-20T00:55:03,42.805,6.029,0.009,0.015,0.001,110.0,107.0,106.0,13.4,1505.2,322.7,-0.8,1.8,2470.925,13.3,0.017,31.0
2023-02-20T00:58:03,42.805,6.029,0.027,0.015,0.026,109.0,109.0,107.0,13.4,1505.2,321.4,-0.8,1.8,2470.935,13.3,0.03,60.9
2023-02-20T01:04:03,42.805,6.029,0.002,0.013,-0.016,109.0,110.0,106.0,13.4,1505.2,328.8,-0.7,1.8,2470.974,13.3,0.013,8.7
2023-02-20T01:07:03,42.805,6.029,-0.012,0.006,-0.021,108.0,108.0,106.0,13.3,1505.2,320.7,-0.8,1.8,2470.962,13.3,0.013,296.6
2023-02-20T01:10:03,42.805,6.029,-0.001,0.001,-0.025,111.0,108.0,108.0,13.4,1505.2,324.4,-0.8,1.8,2470.967,13.3,0.001,315.0
2023-02-20T01:13:03,42.805,6.029,-0.006,0.012,-0.028,108.0,108.0,107.0,13.4,1505.2,339.1,-0.8,1.8,2470.923,13.3,0.013,333.4
2023-02-20T01:16:03,42.805,6.029,-0.001,-0.001,-0.001,109.0,107.0,106.0,13.4,1505.2,324.6,-0.8,1.8,2470.933,13.3,0.001,225.0
2023-02-20T01:19:03,42.805,6.029,-0.004,0.019,-0.013,110.0,108.0,105.0,13.3,1505.2,324.0,-0.8,1.8,2470.899,13.3,0.019,348.1
2023-02-20T01:22:03,42.805,6.029,-0.009,0.005,-0.003,109.0,107.0,107.0,13.4,1505.2,328.4,-0.8,1.8,2470.921,13.3,0.01,299.1
2023-02-20T01:25:03,42.805,6.029,0.009,0.035,0.019,109.0,108.0,106.0,13.4,1505.2,318.5,-0.8,1.8,2470.925,13.3,0.036,14.4
2023-02-20T01:28:03,42.805,6.029,0.013,0.022,-0.01,109.0,109.0,107.0,13.4,1505.2,333.4,-0.8,1.8,2470.95,13.3,0.025,30.6
2023-02-20T01:31:03,42.805,6.029,0.011,0.019,-0.01,109.0,108.0,106.0,13.3,1505.2,337.8,-0.8,1.8,2470.93,13.3,0.021,30.1
2023-02-20T01:34:03,42.805,6.029,-0.006,0.015,0.01,109.0,108.0,107.0,13.3,1505.2,328.2,-0.8,1.8,2470.937,13.3,0.016,338.2
2023-02-20T01:37:03,42.805,6.029,-0.004,0.027,-0.003,110.0,109.0,106.0,13.4,1505.2,326.7,-0.8,1.8,2470.946,13.3,0.027,351.6
2023-02-20T01:40:03,42.805,6.029,0.02,0.015,-0.004,109.0,108.0,106.0,13.3,1505.2,340.6,-0.8,1.8,2470.926,13.3,0.025,53.1
2023-02-20T01:43:03,42.805,6.029,-0.006,0.006,0.004,108.0,108.0,105.0,13.4,1505.2,329.4,-0.7,1.8,2470.939,13.3,0.008,315.0
2023-02-20T01:46:03,42.805,6.029,0.006,-0.001,-0.028,109.0,108.0,105.0,13.4,1505.2,319.2,-0.8,1.8,2470.913,13.3,0.006,99.5
2023-02-20T01:49:03,42.805,6.029,0.0,0.024,0.01,109.0,111.0,106.0,13.4,1505.2,328.1,-0.8,1.8,2470.925,13.3,0.024,0.0
2023-02-20T01:52:03,42.805,6.029,-0.013,0.002,-0.023,109.0,108.0,106.0,13.4,1505.2,323.1,-0.8,1.8,2470.911,13.3,0.013,278.7
2023-02-20T01:55:03,42.805,6.029,0.0,0.007,0.015,109.0,107.0,106.0,13.3,1505.2,330.3,-0.8,1.8,2470.93,13.3,0.007,0.0
2023-02-20T01:58:03,42.805,6.029,0.0,0.007,-0.018,109.0,108.0,106.0,13.3,1505.2,339.1,-0.7,1.8,2470.939,13.3,0.007,0.0
2023-02-20T02:04:03,42.805,6.029,0.005,0.009,-0.026,108.0,108.0,106.0,13.4,1505.2,336.8,-0.8,1.8,2470.992,13.29,0.01,29.1
2023-02-20T02:07:03,42.805,6.029,0.008,0.022,-0.006,109.0,108.0,107.0,13.4,1505.2,339.5,-0.8,1.8,2470.991,13.29,0.023,20.0
2023-02-20T02:10:03,42.805,6.029,-0.006,0.016,-0.008,110.0,107.0,106.0,13.4,1505.2,328.4,-0.7,1.8,2470.973,13.29,0.017,339.4
2023-02-20T02:13:03,42.805,6.029,0.01,0.007,0.012,109.0,109.0,105.0,13.3,1505.2,341.8,-0.8,1.8,2470.981,13.29,0.012,55.0
2023-02-20T02:16:03,42.805,6.029,0.004,0.01,0.037,109.0,109.0,106.0,13.4,1505.2,320.6,-0.8,1.8,2470.973,13.29,0.01,21.8
2023-02-20T02:19:03,42.805,6.029,0.012,0.007,0.012,110.0,108.0,106.0,13.4,1505.2,327.8,-0.8,1.8,2470.964,13.3,0.013,59.7
2023-02-20T02:22:03,42.805,6.029,-0.008,-0.004,0.022,108.0,108.0,106.0,13.4,1505.2,326.0,-0.8,1.8,2470.946,13.3,0.008,243.4
2023-02-20T02:25:03,42.805,6.029,-0.007,0.024,-0.002,109.0,109.0,106.0,13.4,1505.2,317.4,-0.8,1.8,2470.95,13.3,0.025,343.7
2023-02-20T02:28:03,42.805,6.029,0.026,0.018,-0.007,110.0,110.0,106.0,13.4,1505.2,329.1,-0.8,1.8,2470.988,13.3,0.031,55.3
2023-02-20T02:31:03,42.805,6.029,0.004,-0.002,-0.031,109.0,109.0,107.0,13.4,1505.2,332.1,-0.8,1.8,2470.946,13.3,0.004,116.6
2023-02-20T02:34:03,42.805,6.029,0.023,0.0,0.001,110.0,109.0,106.0,13.4,1505.2,321.9,-0.8,1.8,2470.931,13.3,0.023,90.0
2023-02-20T02:37:03,42.805,6.029,0.002,0.011,-0.02,109.0,108.0,106.0,13.4,1505.2,323.6,-0.7,1.8,2470.987,13.3,0.011,10.3
2023-02-20T02:40:03,42.805,6.029,-0.009,0.018,-0.01,109.0,108.0,107.0,13.3,1505.2,323.6,-0.8,1.8,2470.931,13.3,0.02,333.4
2023-02-20T02:43:03,42.805,6.029,0.001,0.03,-0.009,110.0,108.0,106.0,13.4,1505.2,330.2,-0.7,1.9,2470.948,13.3,0.03,1.9
2023-02-20T02:46:03,42.805,6.029,0.008,0.017,-0.001,110.0,109.0,106.0,13.4,1505.2,322.5,-0.8,1.8,2470.96,13.3,0.018,25.2
2023-02-20T02:49:03,42.805,6.029,0.013,0.015,0.022,109.0,108.0,105.0,13.3,1505.2,328.8,-0.8,1.8,2470.987,13.29,0.019,40.9
2023-02-20T02:52:03,42.805,6.029,-0.019,0.0,-0.017,109.0,108.0,111.0,13.4,1505.2,319.8,-0.7,1.8,2470.923,13.29,0.019,270.0
2023-02-20T02:55:03,42.805,6.029,0.0,0.015,0.006,109.0,108.0,107.0,13.3,1505.2,323.5,-0.8,1.8,2470.968,13.29,0.015,0.0
2023-02-20T02:58:03,42.805,6.029,0.004,0.024,-0.02,108.0,109.0,106.0,13.4,1505.2,328.7,-0.8,1.8,2470.956,13.3,0.024,9.5
2023-02-20T03:04:03,42.805,6.029,-0.008,0.026,-0.013,108.0,109.0,105.0,13.3,1505.2,330.8,-0.7,1.8,2471.039,13.29,0.027,342.9
2023-02-20T03:07:03,42.805,6.029,0.008,0.008,-0.031,109.0,109.0,106.0,13.4,1505.2,331.6,-0.8,1.8,2471.034,13.29,0.011,45.0
2023-02-20T03:10:03,42.805,6.029,0.018,0.018,-0.008,110.0,109.0,107.0,13.4,1505.2,325.0,-0.7,1.8,2470.987,13.29,0.025,45.0
2023-02-20T03:13:03,42.805,6.029,-0.002,0.006,-0.034,109.0,109.0,106.0,13.3,1505.2,330.4,-0.7,1.8,2471.012,13.29,0.006,341.6
2023-02-20T03:16:03,42.805,6.029,0.003,0.009,-0.022,109.0,108.0,106.0,13.3,1505.2,318.7,-0.8,1.8,2470.969,13.29,0.009,18.4
2023-02-20T03:19:03,42.805,6.029,0.002,0.021,-0.008,109.0,108.0,107.0,13.3,1505.2,322.9,-0.8,1.8,2470.996,13.29,0.021,5.4
2023-02-20T03:22:03,42.805,6.029,0.006,0.009,-0.009,109.0,109.0,106.0,13.4,1505.2,327.1,-0.8,1.8,2471.008,13.29,0.01,33.7
2023-02-20T03:25:03,42.805,6.029,0.001,0.004,-0.009,109.0,109.0,105.0,13.4,1505.2,326.7,-0.8,1.8,2470.985,13.29,0.004,14.0
2023-02-20T03:28:03,42.805,6.029,0.0,0.024,-0.027,107.0,108.0,105.0,13.3,1505.2,324.1,-0.8,1.8,2471.076,13.29,0.024,0.0
2023-02-20T03:31:03,42.805,6.029,0.002,-0.004,0.004,109.0,109.0,106.0,13.4,1505.2,324.3,-0.8,1.8,2470.997,13.29,0.004,153.4
2023-02-20T03:34:03,42.805,6.029,0.015,0.016,0.005,110.0,109.0,107.0,13.4,1505.2,338.3,-0.8,1.8,2471.004,13.29,0.021,43.1
2023-02-20T03:37:03,42.805,6.029,0.006,0.026,-0.027,110.0,108.0,106.0,13.4,1505.2,328.9,-0.8,1.8,2471.027,13.29,0.026,13.0
2023-02-20T03:40:03,42.805,6.029,-0.008,0.02,-0.012,111.0,109.0,105.0,13.3,1505.2,323.1,-0.8,1.8,2471.035,13.29,0.021,338.2
2023-02-20T03:43:03,42.805,6.029,0.001,0.03,-0.041,109.0,107.0,105.0,13.3,1505.2,318.5,-0.8,1.8,2471.026,13.29,0.03,1.9
2023-02-20T03:46:03,42.805,6.029,0.012,0.006,-0.013,108.0,108.0,106.0,13.3,1505.2,319.5,-0.7,1.8,2471.044,13.29,0.013,63.4
2023-02-20T03:49:03,42.805,6.029,-0.002,0.002,-0.009,105.0,109.0,105.0,13.4,1505.2,329.5,-0.8,1.8,2471.069,13.29,0.002,315.0
2023-02-20T03:52:03,42.805,6.029,-0.009,0.001,0.012,108.0,108.0,106.0,13.3,1505.2,326.5,-0.8,1.8,2471.02,13.29,0.009,276.3
2023-02-20T03:55:03,42.805,6.029,-0.005,0.005,-0.009,107.0,108.0,105.0,13.3,1505.2,331.8,-0.8,1.8,2471.054,13.29,0.007,315.0
2023-02-20T03:58:03,42.805,6.029,0.008,0.012,-0.017,108.0,107.0,106.0,13.3,1505.2,321.6,-0.8,1.8,2471.045,13.3,0.014,33.7
2023-02-20T04:04:03,42.805,6.029,-0.016,0.011,-0.004,109.0,109.0,105.0,13.3,1505.2,323.7,-0.8,1.8,2471.113,13.29,0.019,304.5
2023-02-20T04:07:03,42.805,6.029,-0.002,0.029,-0.006,108.0,109.0,106.0,13.4,1505.2,332.5,-0.8,1.8,2471.072,13.29,0.029,356.1
2023-02-20T04:10:03,42.805,6.029,-0.006,0.019,-0.007,108.0,107.0,107.0,13.4,1505.2,330.7,-0.8,1.8,2471.082,13.29,0.019,342.5
2023-02-20T04:13:03,42.805,6.029,0.0,0.016,-0.017,109.0,109.0,106.0,13.3,1505.2,339.6,-0.8,1.8,2471.079,13.29,0.016,0.0
2023-02-20T04:16:03,42.805,6.029,-0.02,0.009,-0.024,109.0,109.0,106.0,13.4,1505.2,315.5,-0.7,1.8,2471.062,13.29,0.021,294.2
2023-02-20T04:19:03,42.805,6.029,-0.009,0.014,-0.024,108.0,110.0,106.0,13.4,1505.2,337.8,-0.7,1.8,2471.091,13.29,0.016,327.3
2023-02-20T04:22:03,42.805,6.029,0.0,0.014,-0.007,109.0,109.0,106.0,13.4,1505.2,335.0,-0.8,1.8,2471.051,13.3,0.014,0.0
2023-02-20T04:25:03,42.805,6.029,0.015,0.014,-0.026,109.0,108.0,106.0,13.4,1505.2,316.6,-0.8,1.8,2471.108,13.29,0.02,47.0
2023-02-20T04:28:03,42.805,6.029,0.008,0.012,-0.023,109.0,108.0,107.0,13.3,1505.2,333.4,-0.8,1.8,2471.102,13.29,0.014,33.7
2023-02-20T04:31:03,42.805,6.029,-0.002,0.01,-0.016,108.0,108.0,106.0,13.3,1505.2,317.4,-0.7,1.8,2471.097,13.29,0.01,348.7
2023-02-20T04:34:03,42.805,6.029,0.005,0.014,-0.004,111.0,110.0,105.0,13.3,1505.2,320.9,-0.8,1.9,2471.127,13.29,0.014,19.6
2023-02-20T04:37:03,42.805,6.029,0.003,0.015,-0.016,109.0,109.0,107.0,13.4,1505.2,334.2,-0.8,1.8,2471.082,13.29,0.015,11.3
2023-02-20T04:40:03,42.805,6.029,0.018,-0.003,-0.009,110.0,108.0,107.0,13.4,1505.2,322.1,-0.8,1.8,2471.083,13.29,0.018,99.5
2023-02-20T04:43:03,42.805,6.029,0.001,0.022,-0.009,109.0,109.0,106.0,13.4,1505.2,334.2,-0.8,1.8,2471.143,13.29,0.022,2.6
2023-02-20T04:46:03,42.805,6.029,-0.022,0.011,0.009,108.0,108.0,106.0,13.4,1505.2,336.1,-0.8,1.8,2471.13,13.29,0.024,296.6
2023-02-20T04:49:03,42.805,6.029,0.012,-0.008,0.001,109.0,109.0,106.0,13.4,1505.2,318.1,-0.8,1.8,2471.157,13.29,0.014,123.7
2023-02-20T04:52:03,42.805,6.029,-0.003,0.018,-0.023,108.0,108.0,107.0,13.3,1505.2,329.6,-0.8,1.8,2471.108,13.29,0.018,350.5
2023-02-20T04:55:03,42.805,6.029,0.001,0.02,-0.011,109.0,109.0,106.0,13.3,1505.2,326.7,-0.7,1.8,2471.159,13.29,0.02,2.9
2023-02-20T04:58:03,42.805,6.029,0.002,0.022,-0.021,109.0,108.0,105.0,13.3,1505.2,325.4,-0.8,1.8,2471.078,13.29,0.022,5.2
2023-02-20T05:04:03,42.805,6.029,0.011,0.006,-0.022,109.0,109.0,106.0,13.4,1505.2,331.1,-0.7,1.8,2471.211,13.29,0.012,61.4
2023-02-20T05:07:03,42.805,6.029,0.001,0.017,-0.026,109.0,110.0,106.0,13.4,1505.2,333.4,-0.8,1.8,2471.23,13.29,0.017,3.4
2023-02-20T05:10:03,42.805,6.029,0.015,-0.006,0.01,110.0,109.0,106.0,13.4,1505.2,337.4,-0.8,1.8,2471.208,13.29,0.016,111.8
2023-02-20T05:13:03,42.805,6.029,-0.002,0.028,-0.002,109.0,108.0,106.0,13.4,1505.2,317.6,-0.8,1.8,2471.137,13.29,0.028,355.9
2023-02-20T05:16:03,42.805,6.029,0.012,0.033,-0.003,108.0,108.0,106.0,13.4,1505.2,315.5,-0.8,1.8,2471.204,13.29,0.035,20.0
2023-02-20T05:19:03,42.805,6.029,0.009,0.004,0.003,109.0,109.0,107.0,13.4,1505.2,324.8,-0.7,1.9,2471.179,13.29,0.009,66.0
2023-02-20T05:22:03,42.805,6.029,0.01,0.007,-0.004,108.0,109.0,106.0,13.4,1505.2,319.4,-0.8,1.8,2471.153,13.29,0.012,55.0
2023-02-20T05:25:03,42.805,6.029,-0.007,0.022,-0.015,109.0,111.0,106.0,13.4,1505.2,329.1,-0.8,1.8,2471.212,13.29,0.023,342.4
2023-02-20T05:28:03,42.805,6.029,0.013,0.028,-0.002,111.0,109.0,107.0,13.4,1505.2,319.2,-0.8,1.8,2471.195,13.29,0.03,24.9
2023-02-20T05:31:03,42.805,6.029,-0.002,0.019,0.03,110.0,110.0,105.0,13.3,1505.2,316.7,-0.8,1.8,2471.202,13.29,0.019,354.0
2023-02-20T05:34:03,42.805,6.029,0.005,0.002,-0.011,109.0,109.0,106.0,13.4,1505.2,333.4,-0.8,1.8,2471.165,13.29,0.005,68.2
2023-02-20T05:37:03,42.805,6.029,0.003,0.023,0.007,109.0,110.0,106.0,13.4,1505.2,326.5,-0.8,1.9,2471.206,13.29,0.023,7.4
2023-02-20T05:40:03,42.805,6.029,-0.004,0.024,0.004,110.0,109.0,106.0,13.3,1505.2,330.8,-0.7,1.8,2471.19,13.29,0.024,350.5
2023-02-20T05:43:03,42.805,6.029,-0.026,0.029,-0.005,109.0,108.0,106.0,13.4,1505.2,323.7,-0.7,1.8,2471.209,13.29,0.038,318.1
2023-02-20T05:46:03,42.805,6.029,0.021,0.008,-0.009,110.0,109.0,106.0,13.4,1505.2,338.7,-0.8,1.8,2471.201,13.29,0.022,69.1
2023-02-20T05:49:03,42.805,6.029,0.011,0.02,-0.01,110.0,109.0,106.0,13.4,1505.2,338.7,-0.8,1.8,2471.187,13.29,0.022,28.8
2023-02-20T05:52:03,42.805,6.029,0.0,0.033,0.005,109.0,110.0,106.0,13.4,1505.2,326.7,-0.8,1.9,2471.19,13.29,0.033,0.0
2023-02-20T05:55:03,42.805,6.029,-0.008,0.019,0.016,110.0,109.0,108.0,13.4,1505.2,316.7,-0.8,1.8,2471.192,13.29,0.02,337.2
2023-02-20T05:58:03,42.805,6.029,-0.009,0.032,-0.045,110.0,110.0,107.0,13.3,1505.2,330.6,-0.7,1.8,2471.23,13.29,0.033,344.3
2023-02-20T06:04:03,42.805,6.029,0.009,0.025,0.018,109.0,109.0,107.0,13.4,1505.2,331.0,-0.8,1.8,2471.291,13.29,0.026,19.8
2023-02-20T06:07:03,42.805,6.029,0.0,0.004,-0.017,109.0,109.0,107.0,13.3,1505.2,331.5,-0.8,1.8,2471.262,13.29,0.004,0.0
2023-02-20T06:10:03,42.805,6.029,0.01,0.016,-0.006,109.0,109.0,106.0,13.4,1505.2,332.2,-0.8,1.8,2471.238,13.29,0.018,32.0
2023-02-20T06:13:03,42.805,6.029,0.002,0.029,-0.005,110.0,109.0,106.0,13.4,1505.2,321.7,-0.8,1.8,2471.262,13.29,0.029,3.9
2023-02-20T06:16:03,42.805,6.029,-0.004,0.015,-0.013,111.0,109.0,106.0,13.4,1505.2,331.1,-0.8,1.8,2471.259,13.29,0.015,345.1
2023-02-20T06:19:03,42.805,6.029,-0.007,0.016,0.002,109.0,108.0,107.0,13.3,1505.2,331.6,-0.7,1.8,2471.247,13.29,0.017,336.4
2023-02-20T06:22:03,42.805,6.029,0.004,0.012,0.0,108.0,109.0,106.0,13.4,1505.2,323.1,-0.7,1.8,2471.226,13.29,0.012,18.4
2023-02-20T06:25:03,42.805,6.029,0.006,0.016,0.003,109.0,109.0,105.0,13.4,1505.2,333.4,-0.8,1.8,2471.252,13.29,0.017,20.6
2023-02-20T06:28:03,42.805,6.029,0.027,0.007,-0.008,108.0,110.0,105.0,13.4,1505.2,334.7,-0.7,1.8,2471.256,13.29,0.027,75.5
2023-02-20T06:31:03,42.805,6.029,-0.009,0.016,0.01,108.0,108.0,107.0,13.4,1505.2,324.8,-0.7,1.8,2471.247,13.29,0.018,330.6
2023-02-20T06:34:03,42.805,6.029,-0.014,0.016,-0.007,110.0,108.0,105.0,13.3,1505.2,313.8,-0.8,1.8,2471.209,13.29,0.021,318.8
2023-02-20T06:37:03,42.805,6.029,-0.013,0.01,0.0,111.0,108.0,106.0,13.3,1505.2,320.9,-0.8,1.8,2471.197,13.29,0.016,307.6
2023-02-20T06:40:03,42.805,6.029,-0.007,0.024,0.01,109.0,109.0,106.0,13.4,1505.2,334.2,-0.8,1.8,2471.258,13.29,0.025,343.7
2023-02-20T06:43:03,42.805,6.029,0.018,0.011,-0.005,109.0,108.0,107.0,13.3,1505.2,330.2,-0.8,1.8,2471.246,13.29,0.021,58.6
2023-02-20T06:46:03,42.805,6.029,0.002,0.033,0.011,110.0,108.0,106.0,13.4,1505.2,324.2,-0.7,1.8,2471.261,13.29,0.033,3.5
2023-02-20T06:49:03,42.805,6.029,0.002,0.031,-0.009,109.0,109.0,105.0,13.4,1505.2,335.0,-0.7,1.8,2471.238,13.29,0.031,3.7
2023-02-20T06:52:03,42.805,6.029,0.003,0.02,0.015,110.0,109.0,106.0,13.4,1505.2,329.0,-0.8,1.8,2471.237,13.29,0.02,8.5
2023-02-20T06:55:03,42.805,6.029,-0.002,0.015,0.02,110.0,109.0,105.0,13.3,1505.2,324.6,-0.8,1.8,2471.235,13.29,0.015,352.4
2023-02-20T06:58:03,42.805,6.029,-0.004,0.007,0.021,109.0,109.0,105.0,13.3,1505.2,322.7,-0.8,1.8,2471.237,13.29,0.008,330.3
2023-02-20T07:04:03,42.805,6.029,0.005,-0.011,0.021,110.0,109.0,107.0,13.4,1505.2,336.6,-0.8,1.8,2471.289,13.29,0.012,155.6
2023-02-20T07:07:03,42.805,6.029,-0.013,0.023,-0.011,109.0,108.0,106.0,13.3,1505.2,317.8,-0.8,1.8,2471.304,13.29,0.026,330.5
2023-02-20T07:10:03,42.805,6.029,-0.001,0.013,0.002,110.0,110.0,105.0,13.3,1505.2,332.1,-0.8,1.8,2471.325,13.29,0.013,355.6
2023-02-20T07:13:03,42.805,6.029,0.005,-0.002,-0.023,110.0,109.0,106.0,13.4,1505.2,331.8,-0.8,1.8,2471.279,13.29,0.005,111.8
2023-02-20T07:16:03,42.805,6.029,0.002,0.007,-0.026,110.0,109.0,107.0,13.4,1505.2,333.0,-0.8,1.8,2471.293,13.29,0.007,15.9
2023-02-20T07:19:03,42.805,6.029,-0.01,0.016,-0.028,110.0,110.0,107.0,13.4,1505.2,324.0,-0.7,1.8,2471.283,13.29,0.018,328.0
2023-02-20T07:22:03,42.805,6.029,-0.009,0.007,-0.003,110.0,109.0,106.0,13.4,1505.2,320.9,-0.8,1.8,2471.268,13.29,0.011,307.9
2023-02-20T07:25:03,42.805,6.029,0.0,0.015,0.0,111.0,108.0,106.0,13.4,1505.2,333.8,-0.8,1.8,2471.238,13.29,0.015,0.0
2023-02-20T07:28:03,42.805,6.029,0.0,-0.005,-0.031,110.0,109.0,106.0,13.4,1505.2,323.2,-0.8,1.8,2471.284,13.29,0.005,180.0
2023-02-20T07:31:03,42.805,6.029,0.005,-0.003,0.0,109.0,110.0,107.0,13.4,1505.2,332.5,-0.7,1.8,2471.273,13.29,0.005,121.0
2023-02-20T07:34:03,42.805,6.029,0.005,0.033,-0.005,109.0,108.0,105.0,13.4,1505.2,329.0,-0.8,1.8,2471.288,13.29,0.033,8.6
2023-02-20T07:37:03,42.805,6.029,0.0,0.015,-0.017,109.0,109.0,106.0,13.3,1505.2,315.0,-0.8,1.8,2471.287,13.29,0.015,0.0
2023-02-20T07:40:03,42.805,6.029,-0.02,0.007,-0.004,110.0,108.0,106.0,13.4,1505.2,329.5,-0.8,1.8,2471.26,13.29,0.021,289.3
2023-02-20T07:43:03,42.805,6.029,0.015,0.018,0.022,110.0,110.0,107.0,13.3,1505.2,328.2,-0.8,1.8,2471.272,13.29,0.023,39.8
2023-02-20T07:46:03,42.805,6.029,0.012,0.005,-0.015,110.0,109.0,106.0,13.4,1505.2,333.8,-0.8,1.8,2471.266,13.29,0.013,67.4
2023-02-20T07:49:03,42.805,6.029,0.003,0.011,-0.006,109.0,110.0,106.0,13.4,1505.2,325.6,-0.8,1.8,2471.291,13.29,0.011,15.3
2023-02-20T07:52:03,42.805,6.029,0.001,0.006,-0.012,113.0,109.0,106.0,13.4,1505.2,336.8,-0.8,1.8,2471.271,13.29,0.006,9.5
2023-02-20T07:55:03,42.805,6.029,-0.022,0.026,0.027,110.0,109.0,106.0,13.4,1505.2,330.3,-0.8,1.8,2471.258,13.29,0.034,319.8
2023-02-20T07:58:03,42.805,6.029,-0.018,0.009,-0.046,109.0,109.0,107.0,13.4,1505.2,328.5,-0.8,1.8,2471.289,13.29,0.02,296.6
2023-02-20T08:04:03,42.805,6.029,0.0,0.035,0.011,109.0,109.0,106.0,13.4,1505.2,323.1,-0.7,1.8,2471.29,13.29,0.035,0.0
2023-02-20T08:07:03,42.805,6.029,0.016,0.012,0.02,109.0,110.0,105.0,13.4,1505.2,332.1,-0.8,1.8,2471.31,13.29,0.02,53.1
2023-02-20T08:10:03,42.805,6.029,0.015,0.014,-0.022,109.0,108.0,105.0,13.4,1505.2,328.4,-0.8,1.8,2471.311,13.29,0.02,47.0
2023-02-20T08:13:03,42.805,6.029,-0.02,0.043,-0.012,110.0,110.0,106.0,13.3,1505.2,321.4,-0.7,1.8,2471.249,13.29,0.047,335.1
2023-02-20T08:16:03,42.805,6.029,-0.007,0.008,-0.019,109.0,108.0,106.0,13.4,1505.2,332.9,-0.8,1.8,2471.265,13.29,0.01,318.8
2023-02-20T08:19:03,42.805,6.029,-0.004,0.027,0.009,110.0,108.0,105.0,13.3,1505.2,323.4,-0.8,1.8,2471.252,13.29,0.027,351.6
2023-02-20T08:22:03,42.805,6.029,-0.002,0.023,-0.018,110.0,108.0,107.0,13.4,1505.2,333.0,-0.8,1.8,2471.279,13.29,0.023,355.0
2023-02-20T08:25:03,42.805,6.029,-0.026,0.027,-0.01,109.0,109.0,106.0,13.3,1505.2,315.0,-0.8,1.8,2471.283,13.29,0.037,316.1
2023-02-20T08:28:03,42.805,6.029,0.001,0.021,0.012,110.0,109.0,106.0,13.4,1505.2,315.0,-0.8,1.8,2471.265,13.29,0.021,2.7
2023-02-20T08:31:03,42.805,6.029,0.001,0.007,-0.02,110.0,109.0,106.0,13.4,1505.2,326.7,-0.8,1.8,2471.29,13.29,0.007,8.1
2023-02-20T08:34:03,42.805,6.029,0.003,0.011,-0.02,110.0,109.0,105.0,13.4,1505.2,332.5,-0.8,1.8,2471.249,13.29,0.011,15.3
2023-02-20T08:37:03,42.805,6.029,0.016,0.002,-0.033,110.0,109.0,107.0,13.4,1505.2,320.4,-0.8,1.8,2471.204,13.29,0.016,82.9
2023-02-20T08:40:03,42.805,6.029,-0.012,0.003,-0.027,108.0,109.0,106.0,13.3,1505.2,320.8,-0.7,1.8,2471.248,13.29,0.012,284.0
2023-02-20T08:43:03,42.805,6.029,0.01,0.019,-0.002,110.0,109.0,106.0,13.3,1505.2,328.2,-0.7,1.9,2471.27,13.29,0.021,27.8
2023-02-20T08:46:03,42.805,6.029,-0.01,0.02,-0.022,109.0,109.0,105.0,13.4,1505.2,337.4,-0.7,1.8,2471.244,13.29,0.022,333.4
2023-02-20T08:49:03,42.805,6.029,-0.004,0.036,-0.022,109.0,108.0,105.0,13.3,1505.2,327.8,-0.7,1.8,2471.269,13.29,0.036,353.7
2023-02-20T08:52:03,42.805,6.029,0.004,0.018,0.009,108.0,107.0,107.0,13.4,1505.2,326.9,-0.8,1.8,2471.246,13.29,0.018,12.5
2023-02-20T08:55:03,42.805,6.029,-0.01,0.006,-0.013,110.0,109.0,106.0,13.4,1505.2,318.9,-0.7,1.9,2471.298,13.29,0.011,301.0
2023-02-20T08:58:03,42.805,6.029,0.004,0.036,0.0,110.0,109.0,106.0,13.4,1505.2,333.8,-0.8,1.8,2471.249,13.29,0.036,6.3
2023-02-20T09:04:03,42.805,6.029,0.021,0.018,-0.036,109.0,109.0,106.0,13.4,1505.2,321.9,-0.8,1.8,2471.267,13.29,0.027,49.4
2023-02-20T09:07:03,42.805,6.029,0.0,0.029,-0.003,108.0,109.0,105.0,13.4,1505.2,331.5,-0.8,1.8,2471.291,13.29,0.028,0.0
2023-02-20T09:10:03,42.805,6.029,0.012,0.009,0.012,109.0,110.0,107.0,13.4,1505.2,326.8,-0.8,1.8,2471.294,13.29,0.015,53.1
2023-02-20T09:13:03,42.805,6.029,-0.01,0.024,0.035,110.0,108.0,107.0,13.4,1505.2,333.8,-0.8,1.8,2471.291,13.29,0.026,337.4
2023-02-20T09:16:03,42.805,6.029,0.012,0.025,-0.017,109.0,109.0,106.0,13.4,1505.2,341.2,-0.8,1.8,2471.277,13.29,0.027,25.6
2023-02-20T09:19:03,42.805,6.029,0.003,0.015,0.01,108.0,109.0,105.0,13.4,1505.2,339.1,-0.7,1.8,2471.254,13.29,0.015,11.3
2023-02-20T09:22:03,42.805,6.029,0.026,0.022,0.022,109.0,108.0,107.0,13.3,1505.2,336.9,-0.7,1.8,2471.276,13.29,0.034,49.8
2023-02-20T09:25:03,42.805,6.029,0.009,0.003,-0.018,108.0,109.0,106.0,13.4,1505.2,321.6,-0.7,1.8,2471.26,13.29,0.009,71.6
2023-02-20T09:28:03,42.805,6.029,0.013,0.013,0.031,109.0,109.0,106.0,13.3,1505.2,321.8,-0.8,1.8,2471.254,13.29,0.018,45.0
2023-02-20T09:31:03,42.805,6.029,0.001,0.003,-0.016,110.0,108.0,107.0,13.3,1505.2,319.2,-0.7,1.8,2471.263,13.29,0.003,18.4
2023-02-20T09:34:03,42.805,6.029,-0.003,0.024,-0.023,109.0,109.0,105.0,13.4,1505.2,319.8,-0.7,1.8,2471.228,13.29,0.024,352.9
2023-02-20T09:37:03,42.805,6.029,-0.004,0.009,0.0,109.0,110.0,106.0,13.4,1505.2,329.0,-0.8,1.8,2471.205,13.29,0.009,336.0
2023-02-20T09:40:03,42.805,6.029,-0.007,0.023,-0.005,109.0,109.0,106.0,13.4,1505.2,324.2,-0.8,1.8,2471.226,13.29,0.024,343.1
2023-02-20T09:43:03,42.805,6.029,-0.014,0.013,-0.011,110.0,108.0,106.0,13.4,1505.2,325.4,-0.7,1.8,2471.229,13.29,0.019,312.9
2023-02-20T09:46:03,42.805,6.029,0.015,0.015,-0.006,108.0,109.0,106.0,13.3,1505.2,327.9,-0.8,1.8,2471.238,13.29,0.021,45.0
2023-02-20T09:49:03,42.805,6.029,-0.013,0.032,-0.023,110.0,109.0,105.0,13.4,1505.2,329.7,-0.8,1.8,2471.219,13.29,0.034,337.9
2023-02-20T09:52:03,42.805,6.029,0.001,0.018,-0.015,110.0,109.0,107.0,13.4,1505.2,323.8,-0.7,1.9,2471.217,13.29,0.018,3.2
2023-02-20T09:55:03,42.805,6.029,0.006,0.009,-0.007,110.0,109.0,107.0,13.4,1505.2,331.3,-0.8,1.8,2471.238,13.29,0.01,33.7
2023-02-20T09:58:03,42.805,6.029,-0.008,0.009,-0.011,109.0,108.0,106.0,13.3,1505.2,328.5,-0.8,1.8,2471.22,13.29,0.012,318.4
2023-02-20T10:04:03,42.805,6.029,-0.016,0.021,0.02,109.0,110.0,107.0,13.4,1505.2,329.8,-0.8,1.8,2471.241,13.29,0.026,322.7
2023-02-20T10:07:03,42.805,6.029,-0.019,0.015,-0.003,111.0,109.0,107.0,13.4,1505.2,317.6,-0.7,1.8,2471.231,13.29,0.024,308.3